#timestamp,LO_Frequency,Hit,StdDev 
1645185615.9,286046998.2,N
1645185635.7,286047005.6,N
1645185655.5,286047000.3,N
1645185675.4,286047004.2,N
1645185695.2,286047000.9,N
1645185715.1,286046999.5,N
1645185716.0,286047011.9,Y
1645185735.8,286046992.6,P
1645185755.6,286046989.8,N
1645185775.5,286046992.5,N
1645185795.3,286046990.5,N
1645185815.2,286046982.6,Y
1645185835.0,286046991.2,P
1645185835.9,286046991.2,P
1645185855.7,286046995.5,P
1645185875.6,286046994.0,Y
1645185895.4,286047009.4,P
1645185915.3,286047010.2,N
1645185935.1,286047009.7,N
1645185936.0,286047009.7,N
1645185955.8,286047012.4,N
1645185975.7,286047007.0,N
1645185995.5,286047006.5,N
1645186015.4,286047013.9,N
1645186035.2,286047019.4,Y
1645186055.0,286047011.2,P
1645186055.9,286047011.2,P
1645186075.8,286047006.5,P
1645186095.6,286047005.1,N
1645186115.4,286046998.1,N
1645186135.3,286046998.8,N
1645186155.1,286046992.2,N
1645186175.9,286046992.6,N
1645186195.7,286046990.5,N
1645186215.5,286046985.6,N
1645186235.4,286046990.7,N
1645186255.2,286046994.0,N
1645186275.0,286046991.4,N
1645186275.9,286046991.4,N
1645186295.8,286046985.9,N
1645186315.6,286046980.6,N
1645186335.5,286046982.7,N
1645186355.3,286046984.4,N
1645186375.1,286046982.4,N
1645186395.9,286046984.2,N
1645186415.7,286046984.6,N
1645186435.5,286046984.7,N
1645186455.4,286046982.7,N
1645186475.2,286046988.3,N
1645186495.1,286046986.2,N
1645186496.0,286046986.2,N
1645186515.8,286046993.4,N
1645186535.6,286047005.7,N
1645186555.5,286047014.7,N
1645186575.3,286047012.1,N
1645186595.2,286047016.3,N
1645186615.9,286047015.1,N
1645186635.7,286047015.2,N
1645186655.6,286047018.8,N
1645186675.4,286047019.1,N
1645186695.2,286047019.8,N
1645186715.1,286047018.6,N
1645186716.0,286047018.6,N
1645186735.8,286047014.4,N
1645186755.7,286047016.9,N
1645186775.5,286047017.7,N
1645186795.3,286047013.7,N
1645186815.2,286047011.8,N
1645186835.0,286047008.9,N
1645186835.9,286047008.9,N
1645186855.8,286046997.3,N
1645186875.6,286046996.2,N
1645186895.4,286046996.7,N
1645186915.3,286046997.4,N
1645186935.1,286046994.3,N
1645186955.9,286046993.2,N
1645186975.7,286046988.2,N
1645186995.5,286046992.3,N
1645187015.4,286046985.5,N
1645187035.2,286046979.1,N
1645187055.0,286046974.3,N
1645187055.9,286046974.3,N
1645187075.8,286046978.3,N
1645187095.6,286046978.2,N
1645187115.5,286046972.8,N
1645187135.3,286046973.7,N
1645187155.1,286046973.5,N
1645187175.9,286046975.1,N
1645187195.7,286046968.2,N
1645187215.6,286046962.5,N
1645187235.4,286046959.8,N
1645187255.2,286046964.9,N
1645187275.1,286046972.3,N
1645187276.0,286046972.3,N
1645187295.8,286046965.2,N
1645187315.6,286046971.6,N
1645187335.5,286046972.6,N
1645187355.3,286046979.8,N
1645187375.2,286046979.1,N
1645187395.9,286046986.6,N
1645187415.7,286046983.3,N
1645187435.6,286046982.5,N
1645187455.4,286046985.1,N
1645187475.2,286046983.5,N
1645187495.1,286046981.7,N
1645187496.0,286046981.7,N
1645187515.8,286046979.2,N
1645187535.7,286046977.5,Y
1645187555.5,286046999.6,P
1645187575.3,286047003.8,N
1645187595.2,286046999.9,N
1645187615.0,286046998.5,N
1645187615.9,286046998.5,N
1645187635.8,286046999.4,N
1645187655.6,286046996.9,N
1645187675.4,286046996.9,N
1645187695.3,286046992.3,N
1645187715.1,286046993.7,N
1645187735.8,286046997.4,N
1645187755.7,286046994.4,N
1645187775.5,286046992.5,N
1645187795.4,286046984.4,N
1645187815.2,286046983.5,N
1645187835.0,286046981.4,N
1645187835.9,286046981.4,N
1645187855.8,286046982.8,N
1645187875.6,286046978.6,N
1645187895.4,286046976.2,N
1645187915.3,286046980.3,N
1645187935.1,286046983.5,N
1645187955.9,286046979.6,N
1645187975.7,286046977.9,N
1645187995.5,286046981.0,N
1645188015.4,286046983.4,N
1645188035.2,286046983.8,N
1645188055.0,286046984.1,N
1645188055.9,286046984.1,N
1645188075.8,286046983.0,N
1645188095.6,286046981.7,N
1645188115.5,286046982.6,N
1645188135.3,286046985.5,N
1645188155.1,286046986.3,N
1645188175.9,286046981.5,N
1645188195.7,286046984.8,N
1645188215.5,286046986.8,N
1645188235.4,286046982.4,Y
1645188255.2,286046993.2,P
1645188275.1,286046988.8,N
1645188276.0,286046988.8,P
1645188295.8,286046989.5,Y
1645188315.6,286047007.4,P
1645188335.5,286047003.4,N
1645188355.3,286047000.6,N
1645188375.1,286046992.5,N
1645188395.9,286046997.3,N
1645188415.7,286047005.3,N
1645188435.6,286047001.4,N
1645188455.4,286047001.7,N
1645188475.2,286046997.0,N
1645188495.1,286047008.8,N
1645188496.0,286047008.8,N
1645188515.8,286047005.8,N
1645188535.6,286047007.5,N
1645188555.5,286046998.5,N
1645188575.3,286047005.6,N
1645188595.2,286047001.5,N
1645188615.9,286047001.4,N
1645188635.7,286047001.6,N
1645188655.6,286047002.9,N
1645188675.4,286047001.3,N
1645188695.2,286046998.2,N
1645188715.1,286046989.4,N
1645188716.0,286046989.4,N
1645188735.8,286046985.2,N
1645188755.7,286046982.7,N
1645188775.5,286046983.4,N
1645188795.3,286046984.0,N
1645188815.2,286046991.4,N
1645188835.0,286046994.6,N
1645188835.9,286046994.6,N
1645188855.7,286046982.7,N
1645188875.6,286046982.9,N
1645188895.4,286046983.4,N
1645188915.3,286046985.1,N
1645188935.1,286046983.2,N
1645188936.0,286046983.2,N
1645188955.8,286046981.8,N
1645188975.7,286046988.2,N
1645188995.5,286046994.4,N
1645189015.3,286046993.2,N
1645189035.2,286046994.7,N
1645189055.0,286046994.6,N
1645189055.9,286046994.6,N
1645189075.8,286046988.4,N
1645189095.6,286046982.2,N
1645189115.4,286046980.3,N
1645189135.3,286046983.3,N
1645189155.1,286046980.0,Y
1645189175.8,286046991.1,P
1645189195.7,286046988.5,P
